This demonstration page uses our WeatherBlox Daily Observations layout. Learn more.

Hourly Observations for December 31, 2019

Temp ( °F °C ) Dew Point ( °F °C ) Humidity (%) Winds ( mph kmh ) Pressure ( in mb ) Visibility ( mi km ) Precip ( " mm )
12:54 am 00:54 Partly Cloudy 30 -1.1 17 -8.3 58 58 WNW 15 24 29.96 1015 10 16.0934 0 0
1:54 am 01:54 Clear 29 -1.7 18 -7.8 63 63 W 13 20 29.98 1015 10 16.0934 0 0
2:54 am 02:54 Mostly Cloudy 29 -1.7 18 -7.8 63 63 WNW 16 26 29.99 1016 10 16.0934 0 0
3:54 am 03:54 Cloudy 31 -0.6 19 -7.2 61 61 WNW 16 26 29.99 1016 10 16.0934 0 0
4:54 am 04:54 Cloudy 30 -1.1 20 -6.7 66 66 WNW 14 22 30 1016 10 16.0934 0 0
5:54 am 05:54 Partly Cloudy 29 -1.7 19 -7.2 66 66 WNW 12 19 30.01 1016 10 16.0934 0 0
6:54 am 06:54 Cloudy 30 -1.1 19 -7.2 64 64 WNW 12 19 30.01 1016 10 16.0934 0 0
7:54 am 07:54 Cloudy 31 -0.6 20 -6.7 64 64 NW 12 19 30.03 1017 10 16.0934 0 0
8:54 am 08:54 Cloudy 30 -1.1 20 -6.7 66 66 WNW 10 17 30.05 1018 10 16.0934 0 0
9:54 am 09:54 Mostly Cloudy 32 0 20 -6.7 61 61 NW 12 19 30.07 1018 10 16.0934 0 0
10:54 am 10:54 Sunny 35 1.7 20 -6.7 54 54 WNW 14 22 30.07 1018 10 16.0934 0 0
11:54 am 11:54 Partly Cloudy 38 3.3 19 -7.2 46 46 WNW 14 22 30.04 1017 10 16.0934 0 0
12:54 pm 12:54 Mostly Sunny 40 4.4 18 -7.8 41 41 WNW 13 20 30.02 1017 10 16.0934 0 0
1:54 pm 13:54 Sunny 40 4.4 20 -6.7 45 45 W 14 22 30.01 1016 10 16.0934 0 0
2:54 pm 14:54 Sunny 39 3.9 23 -5 53 53 W 9 15 30.01 1016 10 16.0934 0 0
3:54 pm 15:54 Sunny 38 3.3 22 -5.6 52 52 W 8 13 30 1016 10 16.0934 0 0
4:54 pm 16:54 Sunny 36 2.2 23 -5 59 59 WSW 6 9 29.99 1016 10 16.0934 0 0
5:54 pm 17:54 Clear 33 0.6 23 -5 66 66 SW 5 7 29.98 1015 10 16.0934 0 0
6:54 pm 18:54 Clear 30 -1.1 23 -5 75 75 SSW 7 11 29.98 1015 10 16.0934 0 0
7:54 pm 19:54 Clear 25 -3.9 20 -6.7 81 81 SSW 5 7 29.96 1015 10 16.0934 0 0
8:54 pm 20:54 Clear 28 -2.2 22 -5.6 78 78 SW 5 7 29.95 1014 10 16.0934 0 0
9:54 pm 21:54 Clear 27 -2.8 21 -6.1 78 78 SSW 5 7 29.93 1014 10 16.0934 0 0
10:54 pm 22:54 Clear 25 -3.9 19 -7.2 78 78 SW 7 11 29.91 1013 10 16.0934 0 0
11:54 pm 23:54 Clear 27 -2.8 21 -6.1 78 78 SW 6 9 29.88 1012 10 16.0934 0 0

Powered by AerisWeather